DECAYED

CZ-2D DEB, 35272 (Decayed)

Orbit data source: Space-Track

CZ-2D DEB, 35272 was space debris in LEO originally from a launch on Tue, 05 Jul 2005 UTC launched from the Jiuquan Satellite Launch Center, China (JSC). Debris objects in space refer to the collection of defunct objects orbiting the Earth. Examples of debris include non-operational satellites, rocket bodies, and fragments generated from explosions, collisions, or faulty payload assembly.

Not visible in the next 10 days
Identifier
35272, 2005-024L
Orbit
Decayed
Country
Flag of CNCN / PRC
Related business
Manufacturer
Unknown
Mission
Decayed spacecraft
Bus & Motor
Unknown
Mass
Unknown
Launch date (UTC)
2005-07-05 (21 years ago)
Launch vehicle
Unknown
Launch site
Jiuquan Satellite Launch Center, China (JSC)
Object type
Payload
Rocket body
Debris
Shape & HBR
Unknown shape, 0.1 m
Radar Cross Section
Small (<0.1 m²)

Expand to show TLE details & history
Last TLE update: 4 months ago

TLE from 4 months ago
0 CZ-2D DEB
1 35272U 05024L   26146.33357357  .01156223  22843-5  69454-3 0  9990
2 35272  97.1603 185.0172 0009225 211.3999 148.6740 16.18313523136073
Epoch: 2026-05-26T08:00Z
TLE epoch observation values (Epoch: 2026-05-26T08:00:20.756Z)
Latitude
-0.00002°
Longitude
-178.97779°
Altitude
232.57 km
Speed
7.764 km/s
True Right ascension
12h 20m 04s
True Declination
0° 00' 00"
Sunlit
Object was in full shadow at epoch
Visualization orbit readout
Latitude
Unknown
Longitude
Unknown
Altitude
Unknown
Speed
Unknown
Apparent Right ascension
Unknown
Apparent Declination
Unknown
Sunlit
N/A
Visualization observer readout
Local Sidereal Time
15:26:23
Azimuth
Unknown
Elevation
Unknown
Doppler factor
Unknown
Orbital elements
Apogee altitude
227.048 km
Perigee altitude
214.872 km
Semi-major axis
6,599.097 km
Eccentricity
0.00092
Inclination
97.1603°
RAAN
185.0172°
Arg. of periapsis
211.3999°
True anomaly
148.72891°
Mean anomaly
148.674°
Eccentric anomaly
148.70146°
Mean motion
4.04871 °/min
Orbital period
88.92 mins
BSTAR
0.00069454
Loading maneuver chart data...
Computing Atmospheric mass density...
Loading historical data...
Loading historical data...
Loading historical data...
Loading historical data...
Loading historical data...
Loading historical data...
Loading historical data...

Documentation

Showing up to 5 results
|